Year,Month,Day,Hour,Minute,Value (Times are PST for temperature in C)
2010,08,03,00,00,17.90
2010,08,03,00,01,17.80
2010,08,03,00,02,17.80
2010,08,03,00,03,17.80
2010,08,03,00,04,17.70
2010,08,03,00,05,17.70
2010,08,03,00,06,17.70
2010,08,03,00,07,17.70
2010,08,03,00,08,17.60
2010,08,03,00,09,17.60
2010,08,03,00,10,17.50
2010,08,03,00,11,17.50
2010,08,03,00,12,17.50
2010,08,03,00,13,17.40
2010,08,03,00,14,17.40
2010,08,03,00,15,17.40
2010,08,03,00,16,17.40
2010,08,03,00,17,17.30
2010,08,03,00,18,17.30
2010,08,03,00,19,17.30
2010,08,03,00,20,17.30
2010,08,03,00,21,17.30
2010,08,03,00,22,17.30
2010,08,03,00,23,17.30
2010,08,03,00,24,17.30
2010,08,03,00,25,17.30
2010,08,03,00,26,17.30
2010,08,03,00,27,17.30
2010,08,03,00,28,17.30
2010,08,03,00,29,17.30
2010,08,03,00,30,17.30
2010,08,03,00,31,17.30
2010,08,03,00,32,17.30
2010,08,03,00,33,17.30
2010,08,03,00,34,17.30
2010,08,03,00,35,17.30
2010,08,03,00,36,17.30
2010,08,03,00,37,17.30
2010,08,03,00,38,17.30
2010,08,03,00,39,17.30
2010,08,03,00,40,17.30
2010,08,03,00,41,17.30
2010,08,03,00,42,17.30
2010,08,03,00,43,17.30
2010,08,03,00,44,17.20
2010,08,03,00,45,17.20
2010,08,03,00,46,17.20
2010,08,03,00,47,17.20
2010,08,03,00,48,17.20
2010,08,03,00,49,17.10
2010,08,03,00,50,17.10
2010,08,03,00,51,17.10
2010,08,03,00,52,17.00
2010,08,03,00,53,17.00
2010,08,03,00,54,17.00
2010,08,03,00,55,16.90
2010,08,03,00,56,16.90
2010,08,03,00,57,16.90
2010,08,03,00,58,16.80
2010,08,03,00,59,16.80
2010,08,03,01,00,16.80
2010,08,03,01,01,16.70
2010,08,03,01,02,16.70
2010,08,03,01,03,16.70
2010,08,03,01,04,16.70
2010,08,03,01,05,16.70
2010,08,03,01,06,16.60
2010,08,03,01,07,16.60
2010,08,03,01,08,16.60
2010,08,03,01,09,16.50
2010,08,03,01,10,16.40
2010,08,03,01,11,16.40
2010,08,03,01,12,16.40
2010,08,03,01,13,16.40
2010,08,03,01,14,16.40
2010,08,03,01,15,16.30
2010,08,03,01,16,16.30
2010,08,03,01,17,16.30
2010,08,03,01,18,16.30
2010,08,03,01,19,16.20
2010,08,03,01,20,16.20
2010,08,03,01,21,16.20
2010,08,03,01,22,16.10
2010,08,03,01,23,16.10
2010,08,03,01,24,16.10
2010,08,03,01,25,16.10
2010,08,03,01,26,16.10
2010,08,03,01,27,16.00
2010,08,03,01,28,15.90
2010,08,03,01,29,15.90
2010,08,03,01,30,15.90
2010,08,03,01,31,15.90
2010,08,03,01,32,15.80
2010,08,03,01,33,15.80
2010,08,03,01,34,15.80
2010,08,03,01,35,15.80
2010,08,03,01,36,15.80
2010,08,03,01,37,15.80
2010,08,03,01,38,15.80
2010,08,03,01,39,15.80
2010,08,03,01,40,15.70
2010,08,03,01,41,15.70
2010,08,03,01,42,15.70
2010,08,03,01,43,15.60
2010,08,03,01,44,15.60
2010,08,03,01,45,15.60
2010,08,03,01,46,15.60
2010,08,03,01,47,15.60
2010,08,03,01,48,15.50
2010,08,03,01,49,15.50
2010,08,03,01,50,15.50
2010,08,03,01,51,15.50
2010,08,03,01,52,15.50
2010,08,03,01,53,15.40
2010,08,03,01,54,15.40
2010,08,03,01,55,15.40
2010,08,03,01,56,15.40
2010,08,03,01,57,15.30
2010,08,03,01,58,15.30
2010,08,03,01,59,15.30
2010,08,03,02,00,15.30
2010,08,03,02,01,15.30
2010,08,03,02,02,15.30
2010,08,03,02,03,15.30
2010,08,03,02,04,15.30
2010,08,03,02,05,15.20
2010,08,03,02,06,15.20
2010,08,03,02,07,15.20
2010,08,03,02,08,15.20
2010,08,03,02,09,15.20
2010,08,03,02,10,15.20
2010,08,03,02,11,15.20
2010,08,03,02,12,15.20
2010,08,03,02,13,15.20
2010,08,03,02,14,15.10
2010,08,03,02,15,15.10
2010,08,03,02,16,15.10
2010,08,03,02,17,15.10
2010,08,03,02,18,15.10
2010,08,03,02,19,15.10
2010,08,03,02,20,15.10
2010,08,03,02,21,15.10
2010,08,03,02,22,15.10
2010,08,03,02,23,15.10
2010,08,03,02,24,15.10
2010,08,03,02,25,15.10
2010,08,03,02,26,15.00
2010,08,03,02,27,15.00
2010,08,03,02,28,15.00
2010,08,03,02,29,15.00
2010,08,03,02,30,15.00
2010,08,03,02,31,15.00
2010,08,03,02,32,15.00
2010,08,03,02,33,14.90
2010,08,03,02,34,14.90
2010,08,03,02,35,14.90
2010,08,03,02,36,14.90
2010,08,03,02,37,14.90
2010,08,03,02,38,14.90
2010,08,03,02,39,14.90
2010,08,03,02,40,14.90
2010,08,03,02,41,14.90
2010,08,03,02,42,14.80
2010,08,03,02,43,14.80
2010,08,03,02,44,14.80
2010,08,03,02,45,14.80
2010,08,03,02,46,14.80
2010,08,03,02,47,14.80
2010,08,03,02,48,14.80
2010,08,03,02,49,14.80
2010,08,03,02,50,14.80
2010,08,03,02,51,14.80
2010,08,03,02,52,14.80
2010,08,03,02,53,14.80
2010,08,03,02,54,14.80
2010,08,03,02,55,14.80
2010,08,03,02,56,14.80
2010,08,03,02,57,14.80
2010,08,03,02,58,14.80
2010,08,03,02,59,14.80
2010,08,03,03,00,14.80
2010,08,03,03,01,14.80
2010,08,03,03,02,14.80
2010,08,03,03,03,14.80
2010,08,03,03,04,14.70
2010,08,03,03,05,14.70
2010,08,03,03,06,14.70
2010,08,03,03,07,14.70
2010,08,03,03,08,14.70
2010,08,03,03,09,14.70
2010,08,03,03,10,14.70
2010,08,03,03,11,14.70
2010,08,03,03,12,14.70
2010,08,03,03,13,14.70
2010,08,03,03,14,14.70
2010,08,03,03,15,14.70
2010,08,03,03,16,14.70
2010,08,03,03,17,14.70
2010,08,03,03,18,14.70
2010,08,03,03,19,14.70
2010,08,03,03,20,14.70
2010,08,03,03,21,14.70
2010,08,03,03,22,14.70
2010,08,03,03,23,14.70
2010,08,03,03,24,14.70
2010,08,03,03,25,14.70
2010,08,03,03,26,14.70
2010,08,03,03,27,14.70
2010,08,03,03,28,14.70
2010,08,03,03,29,14.70
2010,08,03,03,30,14.70
2010,08,03,03,31,14.70
2010,08,03,03,32,14.70
2010,08,03,03,33,14.70
2010,08,03,03,34,14.70
2010,08,03,03,35,14.70
2010,08,03,03,36,14.70
2010,08,03,03,37,14.70
2010,08,03,03,38,14.70
2010,08,03,03,39,14.70
2010,08,03,03,40,14.70
2010,08,03,03,41,14.70
2010,08,03,03,42,14.70
2010,08,03,03,43,14.70
2010,08,03,03,44,14.70
2010,08,03,03,45,14.70
2010,08,03,03,46,14.80
2010,08,03,03,47,14.80
2010,08,03,03,48,14.80
2010,08,03,03,49,14.80
2010,08,03,03,50,14.80
2010,08,03,03,51,14.80
2010,08,03,03,52,14.80
2010,08,03,03,53,14.80
2010,08,03,03,54,14.80
2010,08,03,03,55,14.90
2010,08,03,03,56,14.90
2010,08,03,03,57,14.90
2010,08,03,03,58,14.90
2010,08,03,03,59,14.90
2010,08,03,04,00,14.90
2010,08,03,04,01,14.90
2010,08,03,04,02,14.90
2010,08,03,04,03,14.90
2010,08,03,04,04,14.90
2010,08,03,04,05,14.90
2010,08,03,04,06,14.90
2010,08,03,04,07,14.90
2010,08,03,04,08,14.90
2010,08,03,04,09,14.90
2010,08,03,04,10,14.90
2010,08,03,04,11,14.90
2010,08,03,04,12,14.90
2010,08,03,04,13,14.90
2010,08,03,04,14,14.90
2010,08,03,04,15,14.90
2010,08,03,04,16,14.90
2010,08,03,04,17,14.90
2010,08,03,04,18,14.90
2010,08,03,04,19,14.90
2010,08,03,04,20,14.90
2010,08,03,04,21,14.90
2010,08,03,04,22,14.90
2010,08,03,04,23,14.90
2010,08,03,04,24,14.90
2010,08,03,04,25,14.90
2010,08,03,04,26,14.90
2010,08,03,04,27,14.90
2010,08,03,04,28,14.90
2010,08,03,04,29,14.90
2010,08,03,04,30,14.90
2010,08,03,04,31,14.90
2010,08,03,04,32,14.90
2010,08,03,04,33,14.90
2010,08,03,04,34,14.90
2010,08,03,04,35,14.90
2010,08,03,04,36,14.90
2010,08,03,04,37,14.90
2010,08,03,04,38,14.90
2010,08,03,04,39,14.90
2010,08,03,04,40,14.90
2010,08,03,04,41,14.90
2010,08,03,04,42,14.90
2010,08,03,04,43,14.90
2010,08,03,04,44,14.90
2010,08,03,04,45,14.90
2010,08,03,04,46,14.90
2010,08,03,04,47,14.90
2010,08,03,04,48,14.90
2010,08,03,04,49,14.90
2010,08,03,04,50,14.90
2010,08,03,04,51,14.90
2010,08,03,04,52,14.90
2010,08,03,04,53,14.90
2010,08,03,04,54,14.90
2010,08,03,04,55,14.90
2010,08,03,04,56,14.90
2010,08,03,04,57,14.90
2010,08,03,04,58,14.90
2010,08,03,04,59,14.90
2010,08,03,05,00,15.00
2010,08,03,05,01,15.00
2010,08,03,05,02,15.00
2010,08,03,05,03,15.00
2010,08,03,05,04,15.00
2010,08,03,05,05,15.00
2010,08,03,05,06,15.00
2010,08,03,05,07,15.00
2010,08,03,05,08,15.00
2010,08,03,05,09,15.00
2010,08,03,05,10,15.00
2010,08,03,05,11,15.00
2010,08,03,05,12,15.00
2010,08,03,05,13,15.00
2010,08,03,05,14,15.00
2010,08,03,05,15,15.00
2010,08,03,05,16,15.00
2010,08,03,05,17,15.00
2010,08,03,05,18,15.00
2010,08,03,05,19,15.00
2010,08,03,05,20,15.00
2010,08,03,05,21,15.00
2010,08,03,05,22,15.00
2010,08,03,05,23,15.00
2010,08,03,05,24,15.00
2010,08,03,05,25,15.00
2010,08,03,05,26,15.00
2010,08,03,05,27,15.00
2010,08,03,05,28,15.00
2010,08,03,05,29,15.00
2010,08,03,05,30,15.00
2010,08,03,05,31,15.00
2010,08,03,05,32,15.00
2010,08,03,05,33,15.10
2010,08,03,05,34,15.10
2010,08,03,05,35,15.10
2010,08,03,05,36,15.10
2010,08,03,05,37,15.10
2010,08,03,05,38,15.10
2010,08,03,05,39,15.10
2010,08,03,05,40,15.10
2010,08,03,05,41,15.10
2010,08,03,05,42,15.10
2010,08,03,05,43,15.10
2010,08,03,05,44,15.10
2010,08,03,05,45,15.10
2010,08,03,05,46,15.10
2010,08,03,05,47,15.10
2010,08,03,05,48,15.10
2010,08,03,05,49,15.10
2010,08,03,05,50,15.10
2010,08,03,05,51,15.10
2010,08,03,05,52,15.10
2010,08,03,05,53,15.10
2010,08,03,05,54,15.10
2010,08,03,05,55,15.10
2010,08,03,05,56,15.10
2010,08,03,05,57,15.10
2010,08,03,05,58,15.10
2010,08,03,05,59,15.10
2010,08,03,06,00,15.10
2010,08,03,06,01,15.10
2010,08,03,06,02,15.10
2010,08,03,06,03,15.10
2010,08,03,06,04,15.10
2010,08,03,06,05,15.10
2010,08,03,06,06,15.00
2010,08,03,06,07,15.00
2010,08,03,06,08,15.00
2010,08,03,06,09,15.00
2010,08,03,06,10,15.00
2010,08,03,06,11,15.00
2010,08,03,06,12,15.00
2010,08,03,06,13,15.00
2010,08,03,06,14,15.00
2010,08,03,06,15,15.00
2010,08,03,06,16,15.00
2010,08,03,06,17,15.00
2010,08,03,06,18,15.00
2010,08,03,06,19,15.00
2010,08,03,06,20,15.00
2010,08,03,06,21,15.00
2010,08,03,06,22,15.00
2010,08,03,06,23,15.00
2010,08,03,06,24,15.00
2010,08,03,06,25,15.00
2010,08,03,06,26,15.00
2010,08,03,06,27,15.00
2010,08,03,06,28,15.00
2010,08,03,06,29,15.00
2010,08,03,06,30,15.00
2010,08,03,06,31,15.00
2010,08,03,06,32,15.00
2010,08,03,06,33,15.00
2010,08,03,06,34,15.00
2010,08,03,06,35,15.00
2010,08,03,06,36,15.00
2010,08,03,06,37,15.00
2010,08,03,06,38,15.00
2010,08,03,06,39,15.00
2010,08,03,06,40,15.00
2010,08,03,06,41,15.00
2010,08,03,06,42,15.00
2010,08,03,06,43,15.00
2010,08,03,06,44,15.10
2010,08,03,06,45,15.10
2010,08,03,06,46,15.10
2010,08,03,06,47,15.10
2010,08,03,06,48,15.10
2010,08,03,06,49,15.10
2010,08,03,06,50,15.10
2010,08,03,06,51,15.20
2010,08,03,06,52,15.20
2010,08,03,06,53,15.20
2010,08,03,06,54,15.20
2010,08,03,06,55,15.20
2010,08,03,06,56,15.20
2010,08,03,06,57,15.20
2010,08,03,06,58,15.20
2010,08,03,06,59,15.20
2010,08,03,07,00,15.20
2010,08,03,07,01,15.20
2010,08,03,07,02,15.20
2010,08,03,07,03,15.20
2010,08,03,07,04,15.30
2010,08,03,07,05,15.30
2010,08,03,07,06,15.30
2010,08,03,07,07,15.30
2010,08,03,07,08,15.30
2010,08,03,07,09,15.30
2010,08,03,07,10,15.30
2010,08,03,07,11,15.30
2010,08,03,07,12,15.30
2010,08,03,07,13,15.30
2010,08,03,07,14,15.30
2010,08,03,07,15,15.30
2010,08,03,07,16,15.30
2010,08,03,07,17,15.30
2010,08,03,07,18,15.30
2010,08,03,07,19,15.30
2010,08,03,07,20,15.30
2010,08,03,07,21,15.30
2010,08,03,07,22,15.30
2010,08,03,07,23,15.30
2010,08,03,07,24,15.30
2010,08,03,07,25,15.30
2010,08,03,07,26,15.30
2010,08,03,07,27,15.40
2010,08,03,07,28,15.40
2010,08,03,07,29,15.50
2010,08,03,07,30,15.50
2010,08,03,07,31,15.50
2010,08,03,07,32,15.50
2010,08,03,07,33,15.60
2010,08,03,07,34,15.60
2010,08,03,07,35,15.60
2010,08,03,07,36,15.70
2010,08,03,07,37,15.70
2010,08,03,07,38,15.80
2010,08,03,07,39,15.80
2010,08,03,07,40,15.80
2010,08,03,07,41,15.80
2010,08,03,07,42,15.80
2010,08,03,07,43,15.80
2010,08,03,07,44,15.80
2010,08,03,07,45,15.80
2010,08,03,07,46,15.80
2010,08,03,07,47,15.90
2010,08,03,07,48,15.90
2010,08,03,07,49,15.90
2010,08,03,07,50,15.90
2010,08,03,07,51,16.00
2010,08,03,07,52,16.10
2010,08,03,07,53,16.10
2010,08,03,07,54,16.10
2010,08,03,07,55,16.10
2010,08,03,07,56,16.20
2010,08,03,07,57,16.20
2010,08,03,07,58,16.20
2010,08,03,07,59,16.20
2010,08,03,08,00,16.30
2010,08,03,08,01,16.30
2010,08,03,08,02,16.30
2010,08,03,08,03,16.30
2010,08,03,08,04,16.30
2010,08,03,08,05,16.30
2010,08,03,08,06,16.30
2010,08,03,08,07,16.40
2010,08,03,08,08,16.40
2010,08,03,08,09,16.40
2010,08,03,08,10,16.40
2010,08,03,08,11,16.40
2010,08,03,08,12,16.40
2010,08,03,08,13,16.40
2010,08,03,08,14,16.40
2010,08,03,08,15,16.50
2010,08,03,08,16,16.60
2010,08,03,08,17,16.60
2010,08,03,08,18,16.70
2010,08,03,08,19,16.70
2010,08,03,08,20,16.70
2010,08,03,08,21,16.80
2010,08,03,08,22,16.80
2010,08,03,08,23,16.90
2010,08,03,08,24,16.90
2010,08,03,08,25,16.90
2010,08,03,08,26,17.00
2010,08,03,08,27,17.00
2010,08,03,08,28,17.00
2010,08,03,08,29,17.00
2010,08,03,08,30,17.00
2010,08,03,08,31,17.00
2010,08,03,08,32,17.00
2010,08,03,08,33,17.00
2010,08,03,08,34,17.10
2010,08,03,08,35,17.10
2010,08,03,08,36,17.10
2010,08,03,08,37,17.20
2010,08,03,08,38,17.20
2010,08,03,08,39,17.10
2010,08,03,08,40,17.00
2010,08,03,08,41,17.00
2010,08,03,08,42,17.00
2010,08,03,08,43,17.00
2010,08,03,08,44,17.00
2010,08,03,08,46,17.20
2010,08,03,08,47,17.30
2010,08,03,08,48,17.30
2010,08,03,08,49,17.40
2010,08,03,08,50,17.50
2010,08,03,08,51,17.50
2010,08,03,08,52,17.60
2010,08,03,08,53,17.70
2010,08,03,08,54,17.70
2010,08,03,08,55,17.80
2010,08,03,08,56,17.80
2010,08,03,08,57,17.90
2010,08,03,08,58,17.90
2010,08,03,08,59,18.00
2010,08,03,09,00,18.10
2010,08,03,09,01,18.20
2010,08,03,09,02,18.20
2010,08,03,09,03,18.30
2010,08,03,09,04,18.40
2010,08,03,09,05,18.30
2010,08,03,09,06,18.20
2010,08,03,09,07,18.10
2010,08,03,09,08,18.10
2010,08,03,09,09,18.20
2010,08,03,09,10,18.20
2010,08,03,09,11,18.20
2010,08,03,09,12,18.20
2010,08,03,09,13,18.10
2010,08,03,09,14,17.90
2010,08,03,09,15,17.80
2010,08,03,09,16,17.70
2010,08,03,09,17,17.70
2010,08,03,09,18,17.60
2010,08,03,09,19,17.70
2010,08,03,09,20,17.60
2010,08,03,09,21,17.60
2010,08,03,09,22,17.60
2010,08,03,09,23,17.70
2010,08,03,09,24,17.70
2010,08,03,09,25,17.80
2010,08,03,09,26,17.90
2010,08,03,09,27,17.90
2010,08,03,09,28,18.10
2010,08,03,09,29,18.10
2010,08,03,09,30,18.00
2010,08,03,09,31,17.90
2010,08,03,09,32,17.90
2010,08,03,09,33,17.80
2010,08,03,09,34,17.80
2010,08,03,09,35,17.80
2010,08,03,09,36,17.80
2010,08,03,09,37,17.70
2010,08,03,09,38,17.70
2010,08,03,09,39,17.80
2010,08,03,09,40,17.80
2010,08,03,09,41,17.80
2010,08,03,09,42,17.90
2010,08,03,09,43,17.90
2010,08,03,09,44,18.00
2010,08,03,09,45,18.10
2010,08,03,09,46,18.30
2010,08,03,09,47,18.40
2010,08,03,09,48,18.50
2010,08,03,09,49,18.50
2010,08,03,09,50,18.50
2010,08,03,09,51,18.50
2010,08,03,09,52,18.50
2010,08,03,09,53,18.60
2010,08,03,09,54,18.70
2010,08,03,09,55,18.80
2010,08,03,09,56,18.90
2010,08,03,09,57,18.90
2010,08,03,09,58,18.90
2010,08,03,09,59,18.90
2010,08,03,10,00,18.80
2010,08,03,10,01,18.70
2010,08,03,10,02,18.70
2010,08,03,10,03,18.70
2010,08,03,10,04,18.80
2010,08,03,10,05,18.90
2010,08,03,10,06,18.90
2010,08,03,10,07,18.90
2010,08,03,10,08,18.90
2010,08,03,10,09,18.80
2010,08,03,10,10,18.60
2010,08,03,10,11,18.50
2010,08,03,10,12,18.50
2010,08,03,10,13,18.40
2010,08,03,10,14,18.30
2010,08,03,10,15,18.30
2010,08,03,10,16,18.30
2010,08,03,10,17,18.20
2010,08,03,10,18,18.20
2010,08,03,10,19,18.20
2010,08,03,10,20,18.20
2010,08,03,10,21,18.20
2010,08,03,10,22,18.30
2010,08,03,10,23,18.40
2010,08,03,10,24,18.40
2010,08,03,10,25,18.30
2010,08,03,10,26,18.20
2010,08,03,10,27,18.10
2010,08,03,10,28,18.10
2010,08,03,10,29,18.00
2010,08,03,10,30,17.90
2010,08,03,10,31,17.90
2010,08,03,10,32,17.90
2010,08,03,10,33,18.10
2010,08,03,10,34,18.20
2010,08,03,10,35,18.40
2010,08,03,10,36,18.50
2010,08,03,10,37,18.60
2010,08,03,10,38,18.60
2010,08,03,10,39,18.70
2010,08,03,10,40,18.80
2010,08,03,10,41,18.90
2010,08,03,10,42,18.80
2010,08,03,10,43,18.60
2010,08,03,10,44,18.60
2010,08,03,10,45,18.60
2010,08,03,10,46,18.70
2010,08,03,10,47,18.80
2010,08,03,10,48,18.80
2010,08,03,10,49,18.80
2010,08,03,10,50,18.90
2010,08,03,10,51,18.90
2010,08,03,10,52,18.80
2010,08,03,10,53,18.80
2010,08,03,10,54,18.80
2010,08,03,10,55,18.80
2010,08,03,10,56,18.80
2010,08,03,10,57,18.90
2010,08,03,10,58,19.00
2010,08,03,10,59,19.10
2010,08,03,11,00,19.20
2010,08,03,11,01,19.20
2010,08,03,11,02,19.30
2010,08,03,11,03,19.30
2010,08,03,11,04,19.30
2010,08,03,11,05,19.30
2010,08,03,11,06,19.30
2010,08,03,11,07,19.30
2010,08,03,11,08,19.40
2010,08,03,11,09,19.50
2010,08,03,11,10,19.60
2010,08,03,11,11,19.50
2010,08,03,11,12,19.40
2010,08,03,11,13,19.20
2010,08,03,11,14,19.20
2010,08,03,11,15,19.30
2010,08,03,11,16,19.30
2010,08,03,11,17,19.30
2010,08,03,11,18,19.20
2010,08,03,11,19,19.20
2010,08,03,11,20,19.10
2010,08,03,11,21,19.10
2010,08,03,11,22,19.10
2010,08,03,11,23,19.10
2010,08,03,11,24,19.10
2010,08,03,11,25,19.20
2010,08,03,11,26,19.30
2010,08,03,11,27,19.30
2010,08,03,11,28,19.30
2010,08,03,11,29,19.10
2010,08,03,11,30,19.00
2010,08,03,11,31,19.00
2010,08,03,11,32,19.10
2010,08,03,11,33,19.30
2010,08,03,11,34,19.40
2010,08,03,11,35,19.60
2010,08,03,11,36,19.80
2010,08,03,11,37,19.80
2010,08,03,11,38,19.90
2010,08,03,11,39,20.00
2010,08,03,11,40,20.10
2010,08,03,11,41,20.20
2010,08,03,11,42,20.20
2010,08,03,11,43,20.20
2010,08,03,11,44,20.30
2010,08,03,11,45,20.20
2010,08,03,11,46,20.20
2010,08,03,11,47,20.20
2010,08,03,11,48,20.10
2010,08,03,11,49,19.90
2010,08,03,11,50,19.90
2010,08,03,11,51,19.90
2010,08,03,11,52,20.00
2010,08,03,11,53,20.10
2010,08,03,11,54,20.10
2010,08,03,11,55,20.10
2010,08,03,11,56,20.10
2010,08,03,11,57,20.20
2010,08,03,11,58,20.30
2010,08,03,11,59,20.30
2010,08,03,12,00,20.20
2010,08,03,12,01,20.20
2010,08,03,12,02,20.10
2010,08,03,12,03,19.90
2010,08,03,12,04,19.90
2010,08,03,12,05,20.10
2010,08,03,12,06,20.20
2010,08,03,12,07,20.20
2010,08,03,12,08,20.00
2010,08,03,12,09,19.90
2010,08,03,12,10,19.90
2010,08,03,12,11,19.90
2010,08,03,12,12,20.00
2010,08,03,12,13,20.10
2010,08,03,12,14,20.20
2010,08,03,12,15,20.20
2010,08,03,12,16,20.20
2010,08,03,12,17,20.20
2010,08,03,12,18,20.30
2010,08,03,12,19,20.40
2010,08,03,12,20,20.60
2010,08,03,12,21,20.80
2010,08,03,12,22,20.90
2010,08,03,12,23,20.80
2010,08,03,12,24,20.70
2010,08,03,12,25,20.50
2010,08,03,12,26,20.40
2010,08,03,12,27,20.30
2010,08,03,12,28,20.40
2010,08,03,12,29,20.30
2010,08,03,12,30,20.30
2010,08,03,12,31,20.30
2010,08,03,12,32,20.30
2010,08,03,12,33,20.30
2010,08,03,12,34,20.30
2010,08,03,12,35,20.30
2010,08,03,12,36,20.30
2010,08,03,12,37,20.30
2010,08,03,12,38,20.30
2010,08,03,12,39,20.50
2010,08,03,12,40,20.40
2010,08,03,12,41,20.20
2010,08,03,12,42,20.20
2010,08,03,12,43,20.20
2010,08,03,12,44,20.30
2010,08,03,12,45,20.40
2010,08,03,12,46,20.50
2010,08,03,12,47,20.40
2010,08,03,12,48,20.20
2010,08,03,12,49,20.20
2010,08,03,12,50,20.20
2010,08,03,12,51,20.10
2010,08,03,12,52,20.00
2010,08,03,12,53,19.90
2010,08,03,12,54,19.90
2010,08,03,12,55,20.10
2010,08,03,12,56,20.10
2010,08,03,12,57,20.00
2010,08,03,12,58,19.90
2010,08,03,12,59,19.80
2010,08,03,13,00,19.80
2010,08,03,13,01,19.70
2010,08,03,13,02,19.60
2010,08,03,13,03,19.50
2010,08,03,13,04,19.50
2010,08,03,13,05,19.60
2010,08,03,13,06,19.70
2010,08,03,13,07,19.80
2010,08,03,13,08,19.90
2010,08,03,13,09,19.90
2010,08,03,13,10,19.90
2010,08,03,13,11,19.90
2010,08,03,13,12,19.90
2010,08,03,13,13,19.90
2010,08,03,13,14,19.90
2010,08,03,13,15,19.90
2010,08,03,13,16,19.80
2010,08,03,13,17,19.70
2010,08,03,13,18,19.70
2010,08,03,13,19,19.70
2010,08,03,13,20,19.70
2010,08,03,13,21,19.80
2010,08,03,13,22,19.80
2010,08,03,13,23,19.80
2010,08,03,13,24,19.70
2010,08,03,13,25,19.60
2010,08,03,13,26,19.60
2010,08,03,13,27,19.60
2010,08,03,13,28,19.70
2010,08,03,13,29,19.70
2010,08,03,13,30,19.70
2010,08,03,13,31,19.80
2010,08,03,13,32,19.70
2010,08,03,13,33,19.50
2010,08,03,13,34,19.40
2010,08,03,13,35,19.30
2010,08,03,13,36,19.20
2010,08,03,13,37,19.30
2010,08,03,13,38,19.40
2010,08,03,13,39,19.50
2010,08,03,13,40,19.60
2010,08,03,13,41,19.60
2010,08,03,13,42,19.60
2010,08,03,13,43,19.50
2010,08,03,13,44,19.40
2010,08,03,13,45,19.30
2010,08,03,13,46,19.30
2010,08,03,13,47,19.40
2010,08,03,13,48,19.40
2010,08,03,13,49,19.50
2010,08,03,13,50,19.50
2010,08,03,13,51,19.60
2010,08,03,13,52,19.60
2010,08,03,13,53,19.60
2010,08,03,13,54,19.50
2010,08,03,13,55,19.50
2010,08,03,13,56,19.50
2010,08,03,13,57,19.40
2010,08,03,13,58,19.40
2010,08,03,13,59,19.40
2010,08,03,14,00,19.30
2010,08,03,14,01,19.30
2010,08,03,14,02,19.20
2010,08,03,14,03,19.20
2010,08,03,14,04,19.10
2010,08,03,14,05,19.10
2010,08,03,14,06,19.10
2010,08,03,14,07,19.10
2010,08,03,14,08,19.10
2010,08,03,14,09,19.10
2010,08,03,14,10,19.10
2010,08,03,14,11,19.10
2010,08,03,14,12,19.10
2010,08,03,14,13,19.10
2010,08,03,14,14,19.10
2010,08,03,14,15,19.10
2010,08,03,14,16,19.10
2010,08,03,14,17,19.10
2010,08,03,14,18,18.90
2010,08,03,14,19,18.90
2010,08,03,14,20,18.90
2010,08,03,14,21,18.90
2010,08,03,14,22,18.80
2010,08,03,14,23,18.90
2010,08,03,14,24,18.90
2010,08,03,14,25,19.00
2010,08,03,14,26,19.10
2010,08,03,14,27,19.10
2010,08,03,14,28,19.10
2010,08,03,14,29,19.10
2010,08,03,14,30,19.10
2010,08,03,14,31,19.20
2010,08,03,14,32,19.20
2010,08,03,14,33,19.20
2010,08,03,14,34,19.20
2010,08,03,14,35,19.20
2010,08,03,14,36,19.20
2010,08,03,14,37,19.20
2010,08,03,14,38,19.20
2010,08,03,14,39,19.20
2010,08,03,14,40,19.30
2010,08,03,14,41,19.40
2010,08,03,14,42,19.50
2010,08,03,14,43,19.60
2010,08,03,14,44,19.80
2010,08,03,14,45,19.90
2010,08,03,14,46,20.10
2010,08,03,14,47,20.10
2010,08,03,14,48,20.10
2010,08,03,14,49,20.00
2010,08,03,14,50,19.90
2010,08,03,14,51,20.00
2010,08,03,14,52,20.10
2010,08,03,14,53,20.20
2010,08,03,14,54,20.20
2010,08,03,14,55,20.20
2010,08,03,14,56,20.30
2010,08,03,14,57,20.40
2010,08,03,14,58,20.50
2010,08,03,14,59,20.60
2010,08,03,15,00,20.70
2010,08,03,15,01,20.80
2010,08,03,15,02,20.90
2010,08,03,15,03,21.00
2010,08,03,15,04,21.10
2010,08,03,15,05,21.10
2010,08,03,15,06,21.20
2010,08,03,15,07,21.30
2010,08,03,15,08,21.40
2010,08,03,15,09,21.60
2010,08,03,15,10,21.70
2010,08,03,15,11,21.80
2010,08,03,15,12,21.90
2010,08,03,15,13,22.10
2010,08,03,15,14,22.10
2010,08,03,15,15,22.10
2010,08,03,15,16,22.10
2010,08,03,15,17,22.00
2010,08,03,15,18,22.10
2010,08,03,15,19,22.10
2010,08,03,15,20,22.00
2010,08,03,15,21,22.00
2010,08,03,15,22,22.10
2010,08,03,15,23,22.20
2010,08,03,15,24,22.20
2010,08,03,15,25,22.10
2010,08,03,15,26,22.00
2010,08,03,15,27,22.00
2010,08,03,15,28,22.10
2010,08,03,15,29,22.10
2010,08,03,15,30,22.20
2010,08,03,15,31,22.20
2010,08,03,15,32,22.30
2010,08,03,15,33,22.40
2010,08,03,15,34,22.50
2010,08,03,15,35,22.40
2010,08,03,15,36,22.30
2010,08,03,15,37,22.40
2010,08,03,15,38,22.40
2010,08,03,15,39,22.40
2010,08,03,15,40,22.40
2010,08,03,15,41,22.50
2010,08,03,15,42,22.50
2010,08,03,15,43,22.60
2010,08,03,15,44,22.50
2010,08,03,15,45,22.30
2010,08,03,15,46,22.10
2010,08,03,15,47,21.80
2010,08,03,15,48,21.70
2010,08,03,15,49,21.60
2010,08,03,15,50,21.50
2010,08,03,15,51,21.40
2010,08,03,15,52,21.30
2010,08,03,15,53,21.30
2010,08,03,15,54,21.40
2010,08,03,15,55,21.40
2010,08,03,15,56,21.40
2010,08,03,15,57,21.40
2010,08,03,15,58,21.50
2010,08,03,15,59,21.60
2010,08,03,16,00,21.60
2010,08,03,16,01,21.80
2010,08,03,16,02,21.90
2010,08,03,16,03,22.00
2010,08,03,16,04,22.00
2010,08,03,16,05,22.00
2010,08,03,16,06,22.00
2010,08,03,16,07,22.00
2010,08,03,16,08,21.90
2010,08,03,16,09,21.80
2010,08,03,16,10,21.80
2010,08,03,16,11,21.70
2010,08,03,16,12,21.60
2010,08,03,16,13,21.60
2010,08,03,16,14,21.60
2010,08,03,16,15,21.60
2010,08,03,16,16,21.60
2010,08,03,16,17,21.70
2010,08,03,16,18,21.70
2010,08,03,16,19,21.70
2010,08,03,16,20,21.70
2010,08,03,16,21,21.70
2010,08,03,16,22,21.70
2010,08,03,16,23,21.60
2010,08,03,16,24,21.60
2010,08,03,16,25,21.80
2010,08,03,16,26,21.80
2010,08,03,16,27,21.90
2010,08,03,16,28,21.80
2010,08,03,16,29,21.70
2010,08,03,16,30,21.50
2010,08,03,16,31,21.30
2010,08,03,16,32,21.30
2010,08,03,16,33,21.20
2010,08,03,16,34,21.20
2010,08,03,16,35,21.30
2010,08,03,16,36,21.30
2010,08,03,16,37,21.40
2010,08,03,16,38,21.40
2010,08,03,16,39,21.60
2010,08,03,16,40,21.60
2010,08,03,16,41,21.80
2010,08,03,16,42,21.90
2010,08,03,16,43,22.00
2010,08,03,16,44,22.00
2010,08,03,16,45,22.10
2010,08,03,16,46,22.10
2010,08,03,16,47,22.20
2010,08,03,16,48,22.30
2010,08,03,16,49,22.30
2010,08,03,16,50,22.40
2010,08,03,16,51,22.40
2010,08,03,16,52,22.40
2010,08,03,16,53,22.40
2010,08,03,16,54,22.40
2010,08,03,16,55,22.40
2010,08,03,16,56,22.50
2010,08,03,16,57,22.50
2010,08,03,16,58,22.50
2010,08,03,16,59,22.40
2010,08,03,17,00,22.30
2010,08,03,17,01,22.30
2010,08,03,17,02,22.30
2010,08,03,17,03,22.20
2010,08,03,17,04,22.10
2010,08,03,17,05,22.10
2010,08,03,17,06,22.20
2010,08,03,17,07,22.20
2010,08,03,17,08,22.30
2010,08,03,17,09,22.40
2010,08,03,17,10,22.40
2010,08,03,17,11,22.40
2010,08,03,17,12,22.40
2010,08,03,17,13,22.50
2010,08,03,17,14,22.60
2010,08,03,17,15,22.60
2010,08,03,17,16,22.60
2010,08,03,17,17,22.60
2010,08,03,17,18,22.70
2010,08,03,17,19,22.70
2010,08,03,17,20,22.70